Location: Les Chemineaux
(47.3024°N, 1.5104°E)
Time: 04:09:40
(UTC+00:00)

Cosmos 2058 Rocket - Pass Details

Date: 19 May 2025
Orbit: 604 x 634 km, 82.5° (Epoch: 13 June)

Event Time Altitude Azimuth Distance (km) Brightness Sun altitude
Exits shadow 20:36:30 - 184° (S) 2,835 6.1 -9.9°
Reaches altitude 10° 20:38:32 10° 183° (S) 2,011 5.3 -10.1°
Maximum altitude 20:42:59 80° 99° (E) 647 3.0 -10.6°
Drops below altitude 10° 20:47:28 10° 11° (NNE) 2,015 6.2 -11.2°
Sets 20:49:42 0° 11° (N) 2,923 7.1 -11.4°
